AirNav   ATP
 
 624 users online  

2TX
(formerly 73TA)
Salado Airport
Salado, Texas, USA

GOING TO SALADO?


FAA INFORMATION EFFECTIVE 19 JULY 2018

Location

FAA Identifier: 2TX
Lat/Long: 30-55-14.6450N / 097-32-25.8150W
30-55.244083N / 097-32.430250W
30.9207347 / -97.5405042
(estimated)
Elevation: 685 ft. / 209 m (estimated)
Variation: 07E (1985)
From city: 2 miles S of SALADO, TX
Time zone: UTC -5 (UTC -6 during Standard Time)
Zip code: 76571

Airport Operations

Airport use: Open to the public
Activation date: 04/1975
Control tower: no
ARTCC: FORT WORTH CENTER
FSS: SAN ANGELO FLIGHT SERVICE STATION
NOTAMs facility: SJT (NOTAM-D service available)
Attendance: UNATNDD
Wind indicator: yes
Segmented circle: no

Airport Communications

CTAF: 122.9
WX AWOS-3PT at ILE (12 nm NW): 128.575 (254-690-3131)
WX AWOS-3PT at TPL (15 nm NE): 134.975 (254-774-8337)
WX AWOS-3PT at GTU (16 nm SW): PHONE 512-869-3430

Nearby radio navigation aids

VOR radial/distance  VOR name  Freq  Var
GRKr112/15.6GRAY VOR/DME111.8004E
TPLr190/18.3TEMPLE VOR/DME110.4009E
CWKr353/32.5CENTEX VORTAC112.8006E
AGJr112/34.8GOOCH SPRINGS VORTAC112.5005E

 
NDB name  Hdg/Dist  Freq  Var  ID
IRESH121/10.627805EIL .. .-..
HOOD138/15.334707EHLR .... .-.. .-.

Airport Services

Parking: tiedowns
Airframe service: NONE
Powerplant service: NONE
Bottled oxygen: NONE
Bulk oxygen: NONE

Runway Information

Runway 1/19

Dimensions: 3190 x 100 ft. / 972 x 30 m
Surface: turf/dirt, in fair condition
Runway edge markings: 01/19 WHITE AUTO TIRES & RED & AMBER REFLECTORS MARK THR; RWY EDGES MRKD BY RED AND AMBER REFECTORS.
RUNWAY 1  RUNWAY 19
Traffic pattern: leftleft
Markings: NSTDNSTD
Obstructions: 4 ft. post, marked, 55 ft. both sides of centerline
01/19 POST MARKED WITH RED AND AMBER REFLECTORS.
4 ft. post, marked, 55 ft. both sides of centerline

Airport Ownership and Management from official FAA records

Ownership: Privately-owned
Owner: MARK POLLACK
15771 SOUTH I35
SALADO, TX 76571
Phone 254-947-3483
Manager: MARK POLLACK
15771 SOUTH I35
SALADO, TX 76571
Phone 254-947-3483

Airport Operational Statistics

Aircraft based on the field: 2
Single engine airplanes: 2
    
Aircraft operations: avg 29/week *
67% transient general aviation
33% local general aviation
* for 12-month period ending 25 January 1982

Additional Remarks

E110-2 RWY ROUGH.
UNUSBL DURG AND 24 HOURS AFTER HEAVY RAIN.
RWY ROUGH.

Instrument Procedures

There are no published instrument procedures at 2TX.

Some nearby airports with instrument procedures:

KILE - Skylark Field Airport (12 nm NW)
KTPL - Draughon-Miller Central Texas Regional Airport (15 nm NE)
KHLR - Hood Army Airfield (16 nm NW)
KGTU - Georgetown Municipal Airport (16 nm SW)
KGRK - Robert Gray Army Airfield (17 nm NW)
 
Loc | Ops | Rwys | IFR | FBO | Links
Com | Nav | Svcs | Stats | Notes


 
Area around 2TX (Salado Airport)
 
Road maps at: MapQuest Bing Google
 
Aerial photo
WARNING: Photo may not be current or correct
Aerial photo of 2TX (Salado Airport)
Do you have a better or more recent aerial photo of Salado Airport that you would like to share? If so, please send us your photo.

 
Sectional chart

 
Airport distance calculator
Flying to Salado Airport? Find the distance to fly.

From to 2TX

Sunrise and sunset
Times for 19-Jul-2018
 Local
(UTC-5)
 Zulu
(UTC)
Morning civil twilight06:1311:13
Sunrise06:4011:40
Sunset20:3201:32
Evening civil twilight20:5901:59

Current date and time
Zulu (UTC)  20-Jul-2018 04:55:41
Local (UTC-5)  19-Jul-2018 23:55:41
 
METAR
KILE 
11nm NW 
200356Z AUTO 16009KT 10SM CLR 32/18 A2992 RMK AO2 SLP126 T03170183
KTPL 
15nm NE 
200351Z AUTO 17012KT 10SM CLR 32/19 A2991 RMK AO2 SLP124 T03170194
KHLR 
16nm NW 
200358Z AUTO 16008KT 10SM CLR 32/16 A2988 RMK AO2 SLP104 T03170162
KGTU 
17nm SW 
200356Z AUTO 17007KT 10SM CLR 32/20 A2994 RMK AO2 SLP131 T03170200
KGRK 
17nm NW 
200358Z AUTO 16006KT 10SM CLR 31/15 A2991 RMK AO2 SLP115 T03060146
TAF
KGRK 
17nm NW 
200000Z 2000/2106 15009KT 9999 SCT120 QNH2983INS BECMG 2002/2003 17006KT 9999 SKC QNH2988INS BECMG 2014/2015 19012KT 9999 SKC QNH2991INS BECMG 2102/2103 17009KT 9999 SKC QNH2993INS TX41/2021Z TN24/2012Z
NOTAMs
Click for the latest NOTAMs
NOTAMs are issued by the DoD/FAA and will open in a separate window not controlled by AirNav.

 

 
 

Would you like to see your business listed on this page?

 If your business provides an interesting product or service to pilots, flight crews, aircraft, or users of the Salado Airport, you should consider listing it here.  To start the listing process, click on the button below
 
Add a business
 

Other Pages about Salado Airport

Update a link
 
Copyright © AirNav, LLC. All rights reserved. Privacy Policy  Contact